PACCTY Weather Reports


Display with metric or nautical units.
time (UTC)temp
F
wind
direction
speed
MPH
gust
MPH
rain 1hr
in
rain 24hr
in
rain mn
in
humidity
%
barometer
mb
20260831023828 62 0 0.0 0.0 0.00 0.00 0.00 82 1015.0
20260831023329 62 0 0.0 0.0 0.00 0.00 0.00 83 1015.0
20260831022831 62 0 0.0 0.0 0.00 0.00 0.00 82 1015.1
20260831022329 62 0 0.0 0.0 0.00 0.00 0.00 82 1015.1
20260831021828 63 0 0.0 0.0 0.00 0.00 0.00 82 1014.9
20260831021333 63 0 0.0 0.0 0.00 0.00 0.00 82 1015.2
20260831020828 63 0 0.0 0.0 0.00 0.00 0.00 81 1015.2
20260831015830 63 0 0.0 0.0 0.00 0.00 0.00 81 1015.3
20260831015328 63 0 0.0 0.0 0.00 0.00 0.00 81 1015.3
20260831014829 63 0 0.0 0.0 0.00 0.00 0.00 81 1015.2
20260831013828 63 338 3.0 5.0 0.00 0.00 0.00 80 1015.5
20260831013328 63 326 3.0 5.0 0.00 0.00 0.00 80 1015.6
20260831012830 63 327 4.0 5.0 0.00 0.00 0.00 80 1015.6
20260831012329 63 323 3.0 5.0 0.00 0.00 0.00 79 1015.7
20260831011328 63 326 4.0 6.0 0.00 0.00 0.00 78 1015.7
20260831010830 63 323 4.0 6.0 0.00 0.00 0.00 79 1015.8
20260831010330 63 333 4.0 7.0 0.00 0.00 0.00 79 1015.9
20260831005830 63 331 5.0 7.0 0.00 0.00 0.00 79 1016.0
20260831005329 63 331 5.0 7.0 0.00 0.00 0.00 79 1016.1
20260831004829 63 327 5.0 7.0 0.00 0.00 0.00 80 1016.2
20260831004327 63 330 5.0 7.0 0.00 0.00 0.00 79 1016.3
20260831003828 63 320 5.0 8.0 0.00 0.00 0.00 79 1016.4
20260831002830 63 327 5.0 8.0 0.00 0.00 0.00 78 1016.4
20260831002329 63 324 6.0 8.0 0.00 0.00 0.00 78 1016.5
20260831001830 63 327 6.0 7.0 0.00 0.00 0.00 77 1016.4
20260831001332 64 331 6.0 7.0 0.00 0.00 0.00 78 1016.5
20260831000829 64 333 6.0 7.0 0.00 0.00 0.00 77 1016.5
20260831000328 64 331 6.0 7.0 0.00 0.00 0.00 77 1016.6
20260830235829 64 334 6.0 7.0 0.00 0.00 0.00 77 1016.6
20260830235329 64 334 5.0 7.0 0.00 0.00 0.00 76 1016.7
20260830234327 64 331 5.0 8.0 0.00 0.00 0.00 75 1016.8
20260830233828 65 317 5.0 8.0 0.00 0.00 0.00 75 1016.8
20260830232831 65 329 5.0 7.0 0.00 0.00 0.00 74 1016.9
20260830231829 65 326 5.0 7.0 0.00 0.00 0.00 75 1017.0
20260830230328 65 0 5.0 9.0 0.00 0.00 0.00 76 1017.1
20260830225830 65 317 6.0 9.0 0.00 0.00 0.00 75 1017.3
20260830225329 65 329 6.0 14.0 0.00 0.00 0.00 75 1017.4
20260830224828 65 340 6.0 14.0 0.00 0.00 0.00 74 1017.5
20260830223828 66 326 5.0 8.0 0.00 0.00 0.00 73 1017.5
20260830222829 66 331 5.0 8.0 0.00 0.00 0.00 73 1017.7
20260830222328 66 330 5.0 7.0 0.00 0.00 0.00 73 1017.8
20260830221827 66 347 5.0 10.0 0.00 0.00 0.00 71 1017.8
20260830220829 66 12 5.0 8.0 0.00 0.00 0.00 72 1018.0
20260830220328 66 319 5.0 8.0 0.00 0.00 0.00 73 1018.0
20260830215830 66 322 5.0 10.0 0.00 0.00 0.00 72 1018.0
20260830214828 66 357 6.0 10.0 0.00 0.00 0.00 71 1018.2
20260830213827 66 12 5.0 7.0 0.00 0.00 0.00 71 1018.2
20260830212829 66 341 5.0 7.0 0.00 0.00 0.00 71 1018.3
20260830212331 66 327 4.0 7.0 0.00 0.00 0.00 73 1018.3
20260830211830 66 7 5.0 8.0 0.00 0.00 0.00 72 1018.4
20260830210829 66 327 5.0 9.0 0.00 0.00 0.00 71 1018.4
20260830205828 67 357 4.0 9.0 0.00 0.00 0.00 73 1018.5
20260830205328 67 317 5.0 8.0 0.00 0.00 0.00 71 1018.5
20260830204829 67 326 5.0 8.0 0.00 0.00 0.00 73 1018.6
20260830204327 66 319 4.0 8.0 0.00 0.00 0.00 72 1018.6
20260830203828 66 5 6.0 7.0 0.00 0.00 0.00 70 1018.6
20260830202330 66 18 5.0 8.0 0.00 0.00 0.00 71 1018.8
20260830201827 66 347 5.0 8.0 0.00 0.00 0.00 70 1018.8
20260830201327 66 330 4.0 7.0 0.00 0.00 0.00 73 1018.9
20260830195329 66 309 2.0 6.0 0.00 0.00 0.00 70 1018.9
20260830194829 66 327 4.0 5.0 0.00 0.00 0.00 69 1018.9
20260830194327 66 333 4.0 5.0 0.00 0.00 0.00 68 1019.0
20260830193328 67 12 4.0 9.0 0.00 0.00 0.00 68 1019.1
20260830192829 67 310 4.0 7.0 0.00 0.00 0.00 66 1019.0
20260830191830 66 298 3.0 5.0 0.00 0.00 0.00 68 1019.3
20260830185328 68 170 3.0 7.0 0.00 0.00 0.00 68 1019.4
20260830184828 68 208 1.0 4.0 0.00 0.00 0.00 65 1019.4
20260830184328 68 295 1.0 6.0 0.00 0.00 0.00 64 1019.4
20260830183829 68 306 1.0 6.0 0.00 0.00 0.00 62 1019.4
20260830183329 68 232 0.0 6.0 0.00 0.00 0.00 64 1019.4
20260830182329 67 141 2.0 8.0 0.00 0.00 0.00 62 1019.5
20260830181832 67 298 1.0 8.0 0.00 0.00 0.00 64 1019.6
20260830180328 65 201 3.0 6.0 0.00 0.00 0.00 66 1019.7
20260830174327 62 0 3.0 4.0 0.00 0.00 0.00 80 1019.7
20260830173828 61 347 0.0 4.0 0.00 0.00 0.00 82 1019.7
20260830173557 60 345 0.0 3.0 0.00 0.00 0.00 85 1019.7
20260830173327 60 345 0.0 3.0 0.00 0.00 0.00 85 1019.7
20260830172328 59 0 0.0 0.0 0.00 0.00 0.00 91 1019.7
20260830171829 58 0 0.0 0.0 0.00 0.00 0.00 91 1019.8
20260830170330 56 0 0.0 0.0 0.00 0.00 0.00 96 1019.7
20260830164828 55 0 0.0 0.0 0.00 0.00 0.00 98 1019.7
20260830163828 54 0 0.0 0.0 0.00 0.00 0.00 99 1019.9
20260830162827 54 0 0.0 0.0 0.00 0.00 0.00 100 1019.9
20260830161829 53 0 0.0 0.0 0.00 0.00 0.00 100 1019.9
20260830160829 53 0 0.0 0.0 0.00 0.00 0.00 100 1020.0
20260830160329 52 0 0.0 0.0 0.00 0.04 0.00 100 1020.0
20260830155329 52 0 0.0 0.0 0.00 0.04 0.00 100 1020.1
20260830154830 51 0 0.0 0.0 0.00 0.04 0.00 100 1020.1
20260830153829 51 0 0.0 0.0 0.00 0.04 0.00 100 1020.1
20260830153328 51 0 0.0 0.0 0.00 0.04 0.00 100 1020.1
20260830152827 51 0 0.0 0.0 0.00 0.04 0.00 100 1020.1
20260830152329 51 0 0.0 0.0 0.00 0.04 0.00 100 1020.1
20260830151830 51 0 0.0 0.0 0.00 0.04 0.00 100 1020.1
20260830150828 50 19 0.0 2.0 0.00 0.04 0.00 100 1020.1
20260830145827 50 0 0.0 0.0 0.00 0.05 0.00 100 1020.1
20260830145328 50 0 0.0 0.0 0.00 0.05 0.00 100 1020.1
20260830144327 50 0 0.0 0.0 0.00 0.05 0.00 100 1020.2
20260830143830 50 0 0.0 0.0 0.00 0.05 0.00 100 1020.1
20260830142827 49 0 0.0 0.0 0.00 0.05 0.00 100 1020.1
20260830142327 49 0 0.0 0.0 0.00 0.05 0.00 100 1020.2
20260830141327 49 0 0.0 0.0 0.00 0.05 0.00 100 1020.2
20260830140829 49 0 0.0 0.0 0.00 0.05 0.00 100 1020.2
20260830135827 49 0 0.0 0.0 0.00 0.05 0.00 100 1020.2
20260830135328 49 0 0.0 0.0 0.00 0.05 0.00 100 1020.1
20260830134828 49 0 0.0 0.0 0.00 0.05 0.00 100 1020.2
20260830134328 49 0 0.0 0.0 0.00 0.05 0.00 100 1020.1
20260830133327 49 0 0.0 0.0 0.00 0.05 0.00 100 1020.1
20260830131827 50 0 0.0 0.0 0.00 0.05 0.00 100 1020.0
20260830130929 50 0 0.0 0.0 0.00 0.05 0.00 100 1019.8
20260830130827 50 344 0.0 3.0 0.00 0.05 0.00 100 1019.9
20260830125827 50 0 0.0 0.0 0.00 0.05 0.00 100 1020.0
20260830125334 50 0 0.0 0.0 0.00 0.05 0.00 100 1020.0
20260830124830 50 0 0.0 0.0 0.00 0.05 0.00 100 1020.0
20260830123328 50 0 0.0 0.0 0.00 0.05 0.00 100 1019.9
20260830122827 50 0 0.0 0.0 0.00 0.05 0.00 100 1019.8
20260830122328 50 0 0.0 0.0 0.00 0.05 0.00 100 1019.9
20260830121827 50 0 0.0 0.0 0.00 0.05 0.00 100 1019.8
20260830121327 50 0 0.0 0.0 0.00 0.05 0.00 100 1019.8
20260830120826 50 0 0.0 0.0 0.00 0.05 0.00 100 1019.7
20260830115830 50 0 0.0 0.0 0.00 0.05 0.00 100 1019.8
20260830114827 51 68 0.0 3.0 0.00 0.05 0.00 100 1019.7
20260830112826 51 0 0.0 0.0 0.00 0.05 0.00 100 1019.7
20260830110826 51 0 0.0 0.0 0.00 0.05 0.00 100 1019.7
20260830105826 51 0 0.0 0.0 0.00 0.18 0.00 99 1019.7
20260830104827 51 0 0.0 0.0 0.00 0.18 0.00 99 1019.7
20260830103826 52 0 0.0 0.0 0.00 0.18 0.00 99 1019.7
20260830102826 52 0 0.0 0.0 0.00 0.18 0.00 99 1019.7
20260830101826 52 0 0.0 0.0 0.00 0.18 0.00 99 1019.7
20260830100826 52 0 0.0 0.0 0.00 0.18 0.00 99 1019.8
20260830100326 52 0 0.0 0.0 0.00 0.18 0.00 99 1019.8
20260830095826 52 0 0.0 0.0 0.00 0.18 0.00 99 1019.7
20260830094829 52 0 0.0 0.0 0.00 0.18 0.00 99 1019.7
20260830093826 52 0 0.0 0.0 0.00 0.18 0.00 99 1019.6
20260830092826 52 0 0.0 0.0 0.00 0.18 0.00 99 1019.7
20260830092326 52 0 0.0 0.0 0.00 0.18 0.00 99 1019.7
20260830091826 52 0 0.0 0.0 0.00 0.18 0.00 99 1019.7
20260830090827 53 0 0.0 0.0 0.00 0.18 0.00 99 1019.7
20260830085827 53 0 0.0 0.0 0.00 0.18 0.00 99 1019.7
20260830084826 53 0 0.0 0.0 0.00 0.18 0.00 99 1019.6
20260830082826 53 0 0.0 0.0 0.00 0.18 0.00 98 1019.8
20260830075826 53 0 0.0 0.0 0.00 0.18 0.00 98 1019.8
20260830072826 54 0 0.0 0.0 0.00 0.18 0.00 98 1019.8
20260830072334 54 0 0.0 0.0 0.00 0.18 0.00 98 1019.8
20260830071826 54 0 0.0 0.0 0.00 0.18 0.00 98 1019.8
20260830071327 54 0 0.0 0.0 0.00 0.18 0.00 98 1019.8
20260830070826 54 0 0.0 0.0 0.00 0.18 0.00 98 1019.6
20260830070326 54 0 0.0 0.0 0.00 0.18 0.00 98 1019.7
20260830065826 54 0 0.0 0.0 0.00 0.18 0.18 98 1019.8
20260830064826 54 0 0.0 0.0 0.00 0.18 0.18 97 1019.7
20260830063826 55 0 0.0 0.0 0.00 0.18 0.18 97 1019.7
20260830063326 55 0 0.0 0.0 0.00 0.18 0.18 97 1019.7
20260830062826 55 0 0.0 0.0 0.00 0.18 0.18 97 1019.7
20260830061826 55 0 0.0 0.0 0.00 0.18 0.18 97 1019.7
20260830060826 55 0 0.0 0.0 0.00 0.18 0.18 97 1019.7
20260830055826 55 0 0.0 0.0 0.00 0.18 0.18 96 1019.7
20260830055326 55 0 0.0 0.0 0.00 0.18 0.18 96 1019.8
20260830054826 56 0 0.0 0.0 0.00 0.18 0.18 96 1019.9
20260830053828 56 0 0.0 0.0 0.00 0.18 0.18 96 1019.9
20260830053326 56 0 0.0 0.0 0.00 0.18 0.18 96 1020.0
20260830051826 56 0 0.0 0.0 0.00 0.18 0.18 96 1020.1
20260830051326 56 0 0.0 0.0 0.00 0.18 0.18 95 1020.1
20260830050826 56 0 0.0 0.0 0.00 0.18 0.18 95 1020.0
20260830045826 57 0 0.0 0.0 0.00 0.18 0.18 95 1020.1
20260830045326 57 0 0.0 0.0 0.00 0.18 0.18 94 1020.1
20260830044826 57 0 0.0 0.0 0.00 0.18 0.18 94 1020.1
20260830044326 58 0 0.0 0.0 0.00 0.18 0.18 94 1020.1
20260830042826 59 0 0.0 0.0 0.00 0.18 0.18 92 1020.0
20260830040943 59 0 0.0 0.0 0.00 0.18 0.18 92 1019.9
20260830040826 59 0 0.0 0.0 0.00 0.18 0.18 92 1019.9
20260830035826 59 0 0.0 0.0 0.00 0.18 0.18 91 1019.8
20260830033826 60 0 0.0 0.0 0.00 0.18 0.18 91 1019.6
20260830032826 60 0 0.0 0.0 0.00 0.18 0.18 91 1019.6
20260830032329 60 0 0.0 0.0 0.00 0.18 0.18 91 1019.5
20260830031826 60 0 0.0 0.0 0.00 0.18 0.18 91 1019.5
20260830031326 60 0 0.0 0.0 0.00 0.18 0.18 91 1019.4
20260830030826 60 0 0.0 0.0 0.00 0.18 0.18 91 1019.4
20260830030409 60 0 0.0 0.0 0.00 0.18 0.18 91 1019.4
20260830030326 60 0 0.0 0.0 0.00 0.18 0.18 91 1019.4
20260830025826 60 0 0.0 0.0 0.00 0.18 0.18 91 1019.4
20260830024826 61 0 0.0 0.0 0.00 0.18 0.18 90 1019.4